�������l�o���
Date,Time,MP-1(��Sv/h),MP-2(��Sv/h),MP-3(��Sv/h),MP-4(��Sv/h),MP-5(��Sv/h),MP-6(��Sv/h),MP-7(��Sv/h),MP-8(��Sv/h),����,����(m/s),���J
2019/12/05,00:00,0.711,1.027,0.687,1.281,0.900,0.412,0.717,0.679,���쐼,4.1,��
2019/12/05,00:10,0.708,1.026,0.689,1.282,0.897,0.411,0.716,0.679,��,4.4,��
2019/12/05,00:20,0.711,1.027,0.686,1.282,0.899,0.411,0.715,0.679,���k��,2.9,��
2019/12/05,00:30,0.711,1.026,0.687,1.282,0.898,0.412,0.717,0.680,���k��,3.0,��
2019/12/05,00:40,0.711,1.027,0.688,1.283,0.897,0.411,0.716,0.680,���k��,4.3,��
2019/12/05,00:50,0.709,1.026,0.686,1.284,0.898,0.412,0.716,0.678,���k��,5.6,��
2019/12/05,01:00,0.711,1.027,0.687,1.281,0.899,0.411,0.717,0.679,���k��,5.5,��
2019/12/05,01:10,0.708,1.027,0.688,1.283,0.896,0.412,0.715,0.680,���k��,4.7,��
2019/12/05,01:20,0.710,1.024,0.689,1.281,0.897,0.413,0.715,0.679,���k��,5.6,��
2019/12/05,01:30,0.710,1.027,0.688,1.280,0.898,0.412,0.717,0.679,���k��,5.6,��
2019/12/05,01:40,0.711,1.025,0.688,1.281,0.897,0.411,0.717,0.679,���k��,5.5,��
2019/12/05,01:50,0.708,1.027,0.686,1.282,0.899,0.412,0.713,0.679,���k��,5.8,��
2019/12/05,02:00,0.709,1.026,0.688,1.281,0.897,0.411,0.715,0.677,���k��,5.5,��
2019/12/05,02:10,0.710,1.026,0.687,1.281,0.899,0.411,0.717,0.678,�k��,5.3,��
2019/12/05,02:20,0.707,1.027,0.687,1.282,0.899,0.411,0.717,0.679,���k��,5.2,��
2019/12/05,02:30,0.711,1.028,0.687,1.282,0.899,0.409,0.716,0.679,���k��,5.2,��
2019/12/05,02:40,0.709,1.026,0.687,1.284,0.899,0.410,0.716,0.679,�k�k��,4.2,��
2019/12/05,02:50,0.710,1.026,0.688,1.282,0.897,0.411,0.716,0.679,�k�k��,5.6,��
2019/12/05,03:00,0.709,1.028,0.687,1.283,0.898,0.410,0.718,0.678,�k�k��,5.3,��
2019/12/05,03:10,0.709,1.027,0.688,1.281,0.900,0.410,0.716,0.677,�k�k��,5.5,��
2019/12/05,03:20,0.710,1.025,0.685,1.282,0.898,0.409,0.717,0.678,�k��,4.9,��
2019/12/05,03:30,0.710,1.026,0.686,1.281,0.898,0.411,0.716,0.678,�k��,6.0,��
2019/12/05,03:40,0.709,1.028,0.687,1.281,0.899,0.410,0.716,0.679,�k��,6.3,��
2019/12/05,03:50,0.709,1.026,0.685,1.282,0.901,0.409,0.715,0.677,�k��,6.7,��
2019/12/05,04:00,0.708,1.024,0.686,1.282,0.898,0.410,0.716,0.678,�k��,7.7,��
2019/12/05,04:10,0.708,1.025,0.688,1.283,0.897,0.409,0.715,0.680,�k��,6.7,��
2019/12/05,04:20,0.711,1.027,0.686,1.281,0.897,0.409,0.716,0.677,�k��,6.9,��
2019/12/05,04:30,0.710,1.027,0.686,1.281,0.898,0.410,0.716,0.678,�k��,6.9,��
2019/12/05,04:40,0.708,1.027,0.688,1.282,0.897,0.409,0.715,0.677,�k��,7.4,��
2019/12/05,04:50,0.707,1.026,0.686,1.282,0.896,0.408,0.716,0.679,�k��,6.6,��
2019/12/05,05:00,0.711,1.026,0.688,1.284,0.899,0.408,0.715,0.679,�k��,6.6,��
2019/12/05,05:10,0.708,1.025,0.686,1.281,0.896,0.410,0.714,0.678,�k��,6.7,��
2019/12/05,05:20,0.708,1.026,0.688,1.283,0.900,0.410,0.718,0.679,�k��,6.9,��
2019/12/05,05:30,0.709,1.025,0.686,1.284,0.898,0.409,0.717,0.679,�k��,6.1,��
2019/12/05,05:40,0.707,1.026,0.687,1.280,0.898,0.409,0.715,0.678,�k��,5.3,��
2019/12/05,05:50,0.708,1.025,0.687,1.283,0.895,0.410,0.717,0.677,�k��,5.2,��
2019/12/05,06:00,0.707,1.025,0.687,1.283,0.900,0.409,0.715,0.680,�k��,4.3,��
2019/12/05,06:10,0.709,1.027,0.687,1.282,0.898,0.408,0.715,0.680,�k��,3.5,��
2019/12/05,06:20,0.707,1.024,0.686,1.282,0.898,0.409,0.713,0.676,�k�k��,4.4,��
2019/12/05,06:30,0.708,1.025,0.685,1.281,0.898,0.409,0.715,0.679,�k�k��,4.4,��
2019/12/05,06:40,0.708,1.025,0.686,1.281,0.897,0.409,0.714,0.678,�k��,3.8,��
2019/12/05,06:50,0.708,1.027,0.685,1.279,0.897,0.408,0.715,0.679,���k��,3.8,��
2019/12/05,07:00,0.707,1.023,0.684,1.283,0.896,0.407,0.713,0.679,���쐼,4.3,��
2019/12/05,07:10,0.708,1.025,0.685,1.282,0.899,0.409,0.714,0.677,���쐼,4.9,��
2019/12/05,07:20,0.707,1.024,0.683,1.279,0.897,0.410,0.715,0.679,�쐼,4.6,��
2019/12/05,07:30,0.707,1.023,0.686,1.280,0.897,0.409,0.717,0.678,�쐼,3.8,��
2019/12/05,07:40,0.709,1.025,0.686,1.281,0.897,0.409,0.713,0.680,�쐼,3.8,��
2019/12/05,07:50,0.709,1.022,0.688,1.281,0.897,0.409,0.715,0.678,�쐼,3.0,��
2019/12/05,08:00,0.709,1.024,0.686,1.282,0.898,0.409,0.714,0.678,���쐼,2.7,��
2019/12/05,08:10,0.710,1.027,0.687,1.283,0.897,0.409,0.716,0.679,���쐼,2.3,��
2019/12/05,08:20,0.709,1.025,0.686,1.280,0.899,0.407,0.716,0.679,��,2.9,��
2019/12/05,08:30,0.709,1.025,0.686,1.283,0.898,0.409,0.716,0.678,��,2.9,��
2019/12/05,08:40,0.710,1.026,0.686,1.283,0.896,0.409,0.717,0.679,��,2.5,��
2019/12/05,08:50,0.710,1.024,0.684,1.282,0.899,0.410,0.715,0.678,���k��,3.1,��
2019/12/05,09:00,0.712,1.024,0.684,1.280,0.897,0.411,0.717,0.680,��,3.8,��
2019/12/05,09:10,0.712,1.025,0.685,1.281,0.899,0.409,0.716,0.679,��,4.4,��
2019/12/05,09:20,0.712,1.024,0.683,1.282,0.898,0.409,0.716,0.681,���쐼,5.5,��
2019/12/05,09:30,0.712,1.024,0.684,1.282,0.899,0.409,0.716,0.680,��,6.9,��
2019/12/05,09:40,0.712,1.023,0.684,1.281,0.898,0.408,0.714,0.679,���쐼,6.0,��
2019/12/05,09:50,0.711,1.022,0.685,1.283,0.899,0.409,0.714,0.680,��,6.0,��
2019/12/05,10:00,0.712,1.025,0.685,1.282,0.898,0.411,0.715,0.681,��,5.6,��
2019/12/05,10:10,0.711,1.024,0.683,1.283,0.901,0.410,0.714,0.680,��,3.3,��
2019/12/05,10:20,0.713,1.025,0.685,1.285,0.899,0.409,0.714,0.680,��,2.8,��
2019/12/05,10:30,0.713,-,0.686,1.284,0.900,0.410,0.716,0.680,���쐼,4.3,��
2019/12/05,10:40,0.720,-,0.686,1.286,0.902,0.412,0.714,0.680,���쐼,6.9,��
2019/12/05,10:50,0.714,-,0.688,1.283,0.900,0.409,0.715,0.680,���쐼,5.0,��
2019/12/05,11:00,0.713,-,0.688,1.285,0.899,0.409,0.715,0.679,�쐼,6.0,��
2019/12/05,11:10,0.716,-,0.689,1.285,0.899,0.411,0.716,0.679,���쐼,6.6,��
2019/12/05,11:20,0.712,-,0.691,1.283,0.901,0.410,0.716,0.681,���쐼,7.1,��
2019/12/05,11:30,0.714,-,0.688,1.286,0.900,0.412,0.716,0.680,���쐼,7.1,��
2019/12/05,11:40,0.713,-,0.689,1.287,0.901,0.410,0.716,0.680,���쐼,8.8,��
2019/12/05,11:50,0.715,-,0.688,1.285,0.902,0.412,0.715,0.680,���쐼,8.8,��
2019/12/05,12:00,0.713,-,0.688,1.288,0.903,0.412,0.718,0.681,���쐼,7.4,��
2019/12/05,12:10,0.713,-,0.690,1.286,0.902,0.413,0.716,0.680,��,10.2,��
2019/12/05,12:20,0.713,-,0.688,1.286,0.903,0.413,0.717,0.680,��,6.6,��
2019/12/05,12:30,0.713,-,0.690,1.285,0.900,0.413,0.717,0.680,��,7.4,��
2019/12/05,12:40,0.714,-,0.690,1.285,0.902,0.413,0.716,0.680,���k��,8.2,��
2019/12/05,12:50,0.713,-,0.690,1.284,0.903,0.412,0.717,0.679,��,7.5,��
2019/12/05,13:00,0.713,-,0.689,1.287,0.902,0.413,0.716,0.679,���쐼,6.6,��
2019/12/05,13:10,0.710,1.026,0.688,1.285,0.902,0.411,0.717,0.679,���쐼,6.1,��
2019/12/05,13:20,0.710,1.023,0.686,1.288,0.903,0.412,0.716,0.679,���쐼,5.5,��
2019/12/05,13:30,0.711,1.025,0.688,1.287,0.900,0.412,0.718,0.676,���쐼,6.1,��
2019/12/05,13:40,0.712,1.023,0.687,1.286,0.903,0.414,0.716,0.677,���쐼,6.1,��
2019/12/05,13:50,0.711,1.026,0.687,1.287,0.901,0.413,0.716,0.678,���쐼,6.0,��
2019/12/05,14:00,0.709,1.026,0.687,1.286,0.905,0.413,0.719,0.678,�k��,4.2,��
2019/12/05,14:10,0.708,1.024,0.687,1.285,0.901,0.413,0.719,0.679,�k�k��,7.1,��
2019/12/05,14:20,0.706,1.026,0.687,1.286,0.905,0.411,0.717,0.677,�k�k��,7.1,��
2019/12/05,14:30,0.707,1.024,0.687,1.286,0.902,0.413,0.716,0.679,�k�k��,6.0,��
2019/12/05,14:40,0.710,1.025,0.685,1.287,0.902,0.411,0.717,0.678,�k�k��,7.2,��
2019/12/05,14:50,0.713,1.025,0.690,1.288,0.903,0.411,0.716,0.679,�k�k��,8.2,��
2019/12/05,15:00,0.711,1.028,0.690,1.286,0.904,0.411,0.716,0.680,�k��,8.0,��
2019/12/05,15:10,0.711,1.029,0.689,1.287,0.901,0.413,0.718,0.680,�k�k��,7.2,��
2019/12/05,15:20,0.713,1.027,0.689,1.287,0.901,0.412,0.716,0.680,�k�k��,7.4,��
2019/12/05,15:30,0.711,1.032,0.688,1.286,0.900,0.411,0.716,0.679,�k�k��,7.5,��
2019/12/05,15:40,0.711,1.030,0.689,1.284,0.900,0.411,0.718,0.679,�k�k��,6.7,��
2019/12/05,15:50,0.710,1.030,0.691,1.284,0.902,0.412,0.717,0.679,�k�k��,5.5,��
2019/12/05,16:00,0.711,1.032,0.690,1.287,0.900,0.410,0.717,0.679,�k�k��,6.1,��
2019/12/05,16:10,0.711,1.030,0.687,1.285,0.902,0.408,0.718,0.679,�k�k��,6.6,��
2019/12/05,16:20,0.710,1.031,0.689,1.284,0.903,0.410,0.717,0.679,�k�k��,6.1,��
2019/12/05,16:30,0.711,1.031,0.690,1.285,0.901,0.411,0.718,0.679,�k�k��,6.6,��
2019/12/05,16:40,0.712,1.031,0.688,1.287,0.902,0.410,0.717,0.679,�k�k��,5.3,��
2019/12/05,16:50,0.711,1.032,0.688,1.285,0.901,0.409,0.717,0.679,�k�k��,4.2,��
2019/12/05,17:00,0.711,1.030,0.689,1.286,0.901,0.410,0.717,0.680,�k�k��,4.3,��
2019/12/05,17:10,0.710,1.032,0.688,1.287,0.900,0.409,0.718,0.678,�k�k��,4.9,��
2019/12/05,17:20,0.711,1.030,0.688,1.285,0.902,0.408,0.717,0.679,�k��,3.6,��
2019/12/05,17:30,0.711,1.030,0.688,1.286,0.903,0.408,0.717,0.679,�k��,5.0,��
2019/12/05,17:40,0.709,1.028,0.688,1.288,0.901,0.409,0.715,0.680,�k��,6.3,��
2019/12/05,17:50,0.710,1.032,0.689,1.287,0.900,0.410,0.717,0.680,�k��,6.1,��
2019/12/05,18:00,0.712,1.031,0.691,1.289,0.900,0.410,0.717,0.679,�k��,6.3,��
2019/12/05,18:10,0.711,1.030,0.689,1.289,0.901,0.410,0.718,0.679,�k��,6.0,��
2019/12/05,18:20,0.711,1.031,0.689,1.285,0.902,0.410,0.717,0.679,�k��,5.8,��
2019/12/05,18:30,0.711,1.032,0.688,1.286,0.900,0.409,0.716,0.679,�k��,5.8,��
2019/12/05,18:40,0.710,1.028,0.688,1.287,0.904,0.409,0.717,0.680,�k��,5.5,��
2019/12/05,18:50,0.712,1.030,0.689,1.287,0.900,0.408,0.718,0.681,�k��,5.2,��
2019/12/05,19:00,0.710,1.032,0.690,1.287,0.902,0.408,0.716,0.678,�k��,5.5,��
2019/12/05,19:10,0.710,1.031,0.687,1.287,0.901,0.409,0.717,0.680,�k��,6.9,��
2019/12/05,19:20,0.710,1.030,0.688,1.285,0.899,0.409,0.716,0.681,�k��,6.9,��
2019/12/05,19:30,0.711,1.030,0.689,1.288,0.900,0.411,0.717,0.679,�k��,6.6,�L
2019/12/05,19:40,0.711,1.031,0.688,1.286,0.901,0.409,0.717,0.680,�k��,7.4,��
2019/12/05,19:50,0.710,1.032,0.689,1.289,0.902,0.408,0.718,0.679,�k��,7.1,��
2019/12/05,20:00,0.710,1.031,0.689,1.289,0.903,0.410,0.717,0.679,�k��,5.3,��
2019/12/05,20:10,0.710,1.029,0.688,1.287,0.900,0.408,0.717,0.678,�k��,3.8,��
2019/12/05,20:20,0.712,1.030,0.688,1.286,0.900,0.408,0.717,0.680,�k��,3.5,��
2019/12/05,20:30,0.710,1.031,0.688,1.287,0.903,0.409,0.717,0.679,�k��,3.6,��
2019/12/05,20:40,0.710,1.030,0.688,1.286,0.901,0.410,0.715,0.679,�k��,3.1,��
2019/12/05,20:50,0.709,1.030,0.687,1.287,0.900,0.409,0.716,0.679,�k��,2.5,��
2019/12/05,21:00,0.709,1.031,0.687,1.286,0.901,0.410,0.716,0.680,�k��,1.8,��
2019/12/05,21:10,0.709,1.030,0.688,1.286,0.900,0.408,0.716,0.678,���k��,2.0,��
2019/12/05,21:20,0.708,1.030,0.689,1.285,0.900,0.409,0.716,0.679,�k��,4.9,��
2019/12/05,21:30,0.710,1.029,0.689,1.286,0.899,0.408,0.718,0.677,�k��,5.6,��
2019/12/05,21:40,0.708,1.031,0.689,1.287,0.901,0.408,0.716,0.679,�k��,5.2,��
2019/12/05,21:50,0.707,1.030,0.690,1.287,0.902,0.408,0.716,0.679,���k��,3.9,��
2019/12/05,22:00,0.710,1.030,0.688,1.285,0.899,0.409,0.715,0.678,�k��,6.3,��
2019/12/05,22:10,0.709,1.030,0.689,1.287,0.901,0.408,0.715,0.680,�k��,6.9,��
2019/12/05,22:20,0.709,1.032,0.687,1.287,0.899,0.409,0.717,0.678,�k��,8.6,��
2019/12/05,22:30,0.710,1.030,0.689,1.286,0.900,0.408,0.715,0.679,�k��,9.9,��
2019/12/05,22:40,0.709,1.031,0.688,1.287,0.901,0.408,0.715,0.679,�k��,8.8,��
2019/12/05,22:50,0.712,1.030,0.687,1.287,0.901,0.408,0.717,0.679,�k��,7.1,��
2019/12/05,23:00,0.709,1.030,0.690,1.287,0.902,0.405,0.717,0.678,���k��,2.9,��
2019/12/05,23:10,0.710,1.031,0.690,1.286,0.900,0.408,0.717,0.678,�쐼,0.7,��
2019/12/05,23:20,0.711,1.030,0.688,1.287,0.902,0.409,0.716,0.678,��쓌,0.7,��
2019/12/05,23:30,0.709,1.033,0.688,1.287,0.900,0.408,0.715,0.680,�k��,2.6,��
2019/12/05,23:40,0.710,1.030,0.689,1.286,0.901,0.409,0.716,0.678,�k��,4.3,��
2019/12/05,23:50,0.709,1.029,0.687,1.285,0.901,0.408,0.717,0.679,���k��,5.5,��
